Location: Blangy-Tronville
(49.8790°N, 2.4226°E)
Time: 01:54:59
(UTC+00:00)

YAOGAN 1 - Pass Details

Date: 18 November 2025
Orbit: 605 x 607 km, 97.8° (Epoch: 04 December)

Event Time Altitude Azimuth Distance (km) Brightness Sun altitude
Rises 18:18:04 0° 170° (S) 2,853 5.9 -21.5°
Reaches altitude 10° 18:20:15 10° 172° (S) 1,954 5.1 -21.8°
Maximum altitude 18:24:29 73° 257° (WSW) 639 2.7 -22.5°
Drops below altitude 10° 18:28:46 10° 343° (NNW) 1,968 5.3 -23.2°
Sets 18:30:58 0° 345° (NNW) 2,877 6.1 -23.6°
